• In Hungary
  • List of Countries
  • For 7 days
  • Water Temperature
  • Satellite Maps
  • Weather Map
  • News
  • Weather Widgets
  • user-avatar
    Login

    Hourly Weather Gjirokaster

    Today, 24 January, Wednesday

    Time Temperature Precipitation Wind Pressure Humidity
    00:00 -5°C° 0 mm 3 mps 653 mmHg 70%
    01:00 -5°C° 0 mm 3 mps 653 mmHg 70%
    02:00 -5°C° 0 mm 3 mps 653 mmHg 70%
    03:00 -6°C° 0 mm 3 mps 653 mmHg 69%
    04:00 -6°C° 0 mm 3 mps 653 mmHg 68%
    05:00 -6°C° 0 mm 3 mps 654 mmHg 68%
    06:00 -6°C° 0 mm 3 mps 654 mmHg 67%
    07:00 -6°C° 0 mm 3 mps 654 mmHg 67%
    08:00 -4°C° 0 mm 2 mps 655 mmHg 61%
    09:00 -2°C° 0 mm 2 mps 656 mmHg 55%
    10:00 -1°C° 0 mm 2 mps 657 mmHg 49%
    11:00 +1°C° 0 mm 2 mps 657 mmHg 46%
    12:00 +3°C° 0 mm 1 mps 657 mmHg 43%
    13:00 +4°C° 0 mm 1 mps 657 mmHg 41%
    14:00 +3°C° 0 mm 1 mps 657 mmHg 45%
    15:00 +3°C° 0 mm 1 mps 657 mmHg 49%
    16:00 +2°C° 0 mm 1 mps 657 mmHg 53%
    17:00 +1°C° 0 mm 1 mps 657 mmHg 55%
    18:00 -2°C° 0 mm 2 mps 657 mmHg 57%
    19:00 -4°C° 0 mm 2 mps 657 mmHg 60%
    20:00 -4°C° 0 mm 2 mps 657 mmHg 60%
    21:00 -4°C° 0 mm 2 mps 657 mmHg 61%
    22:00 -5°C° 0 mm 2 mps 657 mmHg 61%
    23:00 -5°C° 0 mm 2 mps 657 mmHg 60%

    Tomorrow, 25 January, Thursday

    Time Temperature Precipitation Wind Pressure Humidity
    00:00 -5°C° 0 mm 2 mps 657 mmHg 59%
    01:00 -5°C° 0 mm 2 mps 657 mmHg 59%
    02:00 -5°C° 0 mm 2 mps 657 mmHg 57%
    03:00 -5°C° 0 mm 2 mps 656 mmHg 56%
    04:00 -5°C° 0 mm 2 mps 656 mmHg 55%
    05:00 -5°C° 0 mm 2 mps 656 mmHg 53%
    06:00 -5°C° 0 mm 2 mps 656 mmHg 52%
    07:00 -5°C° 0 mm 2 mps 656 mmHg 51%
    08:00 -3°C° 0 mm 2 mps 656 mmHg 46%
    09:00 +1°C° 0 mm 1 mps 657 mmHg 42%
    10:00 +2°C° 0 mm 1 mps 657 mmHg 38%
    11:00 +3°C° 0 mm 1 mps 657 mmHg 38%
    12:00 +4°C° 0 mm 1 mps 657 mmHg 38%
    13:00 +5°C° 0 mm 1 mps 657 mmHg 38%
    14:00 +4°C° 0 mm 1 mps 656 mmHg 44%
    15:00 +3°C° 0 mm 1 mps 656 mmHg 51%
    16:00 +3°C° 0 mm 1 mps 656 mmHg 57%
    17:00 +2°C° 0 mm 1 mps 655 mmHg 61%
    18:00 0°C° 0 mm 1 mps 655 mmHg 64%
    19:00 -2°C° 0 mm 0 mps 655 mmHg 68%
    20:00 -1°C° 0 mm 1 mps 655 mmHg 67%
    21:00 -1°C° 0 mm 1 mps 655 mmHg 66%
    22:00 -1°C° 0 mm 1 mps 655 mmHg 65%
    23:00 -1°C° 0 mm 1 mps 655 mmHg 64%

    Day after tomorrow, 26 January, Friday

    Time Temperature Precipitation Wind Pressure Humidity
    00:00 -1°C° 0 mm 1 mps 654 mmHg 62%
    01:00 -1°C° 0 mm 1 mps 654 mmHg 61%
    02:00 -2°C° 0 mm 1 mps 654 mmHg 60%
    03:00 -2°C° 0 mm 1 mps 654 mmHg 58%
    04:00 -4°C° 0 mm 2 mps 653 mmHg 57%
    05:00 -4°C° 0 mm 2 mps 653 mmHg 56%
    06:00 -4°C° 0 mm 2 mps 653 mmHg 55%
    07:00 -4°C° 0 mm 2 mps 653 mmHg 54%
    08:00 -2°C° 0 mm 2 mps 654 mmHg 51%
    09:00 +1°C° 0 mm 2 mps 654 mmHg 48%
    10:00 +4°C° 0 mm 1 mps 655 mmHg 44%
    11:00 +4°C° 0 mm 2 mps 655 mmHg 45%
    12:00 +4°C° 0 mm 2 mps 655 mmHg 45%
    13:00 +5°C° 0 mm 2 mps 654 mmHg 46%
    14:00 +4°C° 0 mm 2 mps 654 mmHg 52%
    15:00 +4°C° 0 mm 2 mps 654 mmHg 58%
    16:00 +3°C° 0 mm 2 mps 654 mmHg 63%
    17:00 +2°C° 0 mm 2 mps 654 mmHg 67%
    18:00 +1°C° 0 mm 2 mps 654 mmHg 71%
    19:00 -2°C° 0 mm 2 mps 654 mmHg 74%
    20:00 -2°C° 0 mm 2 mps 654 mmHg 74%
    21:00 -2°C° 0 mm 2 mps 654 mmHg 74%
    22:00 -2°C° 0 mm 3 mps 654 mmHg 74%
    23:00 -4°C° 0 mm 3 mps 654 mmHg 73%

    27 January, Saturday

    Time Temperature Precipitation Wind Pressure Humidity
    00:00 -4°C° 0 mm 3 mps 654 mmHg 72%
    01:00 -4°C° 0 mm 3 mps 654 mmHg 71%
    02:00 -4°C° 0 mm 3 mps 654 mmHg 70%
    03:00 -4°C° 0 mm 3 mps 653 mmHg 69%
    04:00 -4°C° 0 mm 3 mps 653 mmHg 68%
    05:00 -4°C° 0 mm 3 mps 654 mmHg 67%
    06:00 -4°C° 0 mm 3 mps 654 mmHg 66%
    07:00 -4°C° 0 mm 3 mps 654 mmHg 65%
    08:00 -1°C° 0 mm 3 mps 655 mmHg 61%
    09:00 +2°C° 0 mm 2 mps 655 mmHg 57%
    10:00 +4°C° 0 mm 2 mps 656 mmHg 54%
    11:00 +5°C° 0 mm 2 mps 656 mmHg 54%
    12:00 +5°C° 0 mm 2 mps 656 mmHg 55%
    13:00 +6°C° 0 mm 2 mps 656 mmHg 55%
    14:00 +6°C° 0 mm 2 mps 656 mmHg 60%
    15:00 +5°C° 0 mm 2 mps 656 mmHg 65%
    16:00 +4°C° 0 mm 2 mps 656 mmHg 70%
    17:00 +3°C° 0 mm 2 mps 656 mmHg 74%
    18:00 +3°C° 0 mm 1 mps 656 mmHg 77%
    19:00 +2°C° 0 mm 1 mps 656 mmHg 81%
    20:00 +2°C° 0 mm 1 mps 657 mmHg 80%
    21:00 +1°C° 0 mm 1 mps 657 mmHg 79%
    22:00 -1°C° 0 mm 2 mps 657 mmHg 78%
    23:00 -1°C° 0 mm 2 mps 657 mmHg 77%

    28 January, Sunday

    Time Temperature Precipitation Wind Pressure Humidity
    00:00 -1°C° 0 mm 2 mps 657 mmHg 76%
    01:00 -2°C° 0 mm 2 mps 658 mmHg 75%
    02:00 -2°C° 0 mm 2 mps 658 mmHg 74%
    03:00 -2°C° 0 mm 2 mps 658 mmHg 73%
    04:00 -2°C° 0 mm 2 mps 658 mmHg 72%
    05:00 -2°C° 0 mm 2 mps 658 mmHg 72%
    06:00 -2°C° 0 mm 2 mps 658 mmHg 71%
    07:00 -3°C° 0 mm 2 mps 658 mmHg 70%
    08:00 -1°C° 0 mm 2 mps 659 mmHg 64%
    09:00 +3°C° 0 mm 1 mps 660 mmHg 58%
    10:00 +5°C° 0 mm 1 mps 661 mmHg 52%
    11:00 +6°C° 0 mm 1 mps 661 mmHg 50%
    12:00 +7°C° 0 mm 1 mps 661 mmHg 48%
    13:00 +8°C° 0 mm 1 mps 661 mmHg 46%
    14:00 +8°C° 0 mm 1 mps 661 mmHg 51%
    15:00 +6°C° 0 mm 2 mps 661 mmHg 57%
    16:00 +5°C° 0 mm 2 mps 660 mmHg 62%
    17:00 +4°C° 0 mm 2 mps 660 mmHg 65%
    18:00 +3°C° 0 mm 2 mps 660 mmHg 69%
    19:00 +1°C° 0 mm 2 mps 660 mmHg 72%
    20:00 +1°C° 0 mm 2 mps 660 mmHg 72%
    21:00 +1°C° 0 mm 2 mps 660 mmHg 71%
    22:00 -1°C° 0 mm 2 mps 660 mmHg 71%
    23:00 -1°C° 0 mm 2 mps 660 mmHg 70%

    29 January, Monday

    Time Temperature Precipitation Wind Pressure Humidity
    00:00 -1°C° 0 mm 2 mps 660 mmHg 69%
    01:00 -1°C° 0 mm 2 mps 660 mmHg 69%
    02:00 -1°C° 0 mm 2 mps 660 mmHg 68%
    03:00 -2°C° 0 mm 2 mps 660 mmHg 68%
    04:00 -2°C° 0 mm 2 mps 659 mmHg 68%
    05:00 -2°C° 0 mm 2 mps 659 mmHg 68%
    06:00 -2°C° 0 mm 2 mps 659 mmHg 68%
    07:00 -2°C° 0 mm 2 mps 659 mmHg 68%
    08:00 +1°C° 0 mm 2 mps 660 mmHg 62%
    09:00 +3°C° 0 mm 2 mps 660 mmHg 56%
    10:00 +6°C° 0 mm 1 mps 661 mmHg 50%
    11:00 +7°C° 0 mm 1 mps 661 mmHg 47%
    12:00 +8°C° 0 mm 1 mps 661 mmHg 45%
    13:00 +9°C° 0 mm 1 mps 661 mmHg 42%
    14:00 +8°C° 0 mm 1 mps 660 mmHg 47%
    15:00 +7°C° 0 mm 1 mps 660 mmHg 52%
    16:00 +7°C° 0 mm 1 mps 660 mmHg 58%
    17:00 +5°C° 0 mm 1 mps 659 mmHg 61%
    18:00 +4°C° 0 mm 1 mps 659 mmHg 65%
    19:00 +3°C° 0 mm 1 mps 659 mmHg 68%
    20:00 +2°C° 0 mm 1 mps 659 mmHg 68%
    21:00 +2°C° 0 mm 1 mps 659 mmHg 67%
    22:00 +2°C° 0 mm 1 mps 659 mmHg 67%
    23:00 +2°C° 0 mm 1 mps 659 mmHg 66%
    Show more